Location: Wingville
(42.9917°N, 90.4915°W)
Time: 18:08:20
(UTC+00:00)

CUBESAT XI-V - Pass Details

Date: 03 July 2022
Orbit: 668 x 690 km, 98.1° (Epoch: 18 August)

Event Time Altitude Azimuth Distance (km) Brightness Sun altitude
Exits shadow 07:26:07 31° 137° (SE) 1,171 ? -21.5°
Maximum altitude 07:28:06 57° 73° (ENE) 797 ? -21.4°
Drops below altitude 10° 07:32:36 10° 355° (N) 2,107 ? -21.1°
Sets 07:34:51 0° 352° (N) 3,024 ? -21.0°
